Back to catalog

GAOFEN 11

AliveScienceSSO
NORAD 43585·PAYLOAD·🇨🇳 China

Launched Jul 31, 2018 from Taiyuan Satellite Launch Center

Loading…

Next Passes (next 24 hours)

TLE

FreshSource: Space-Track

Epoch: Sep 14, 2026, 11:17 UTC

1 43585U 18063A   26257.47075793  .00015722  00000-0  21339-3 0  9995
2 43585  97.1192 324.2037 0003870  26.7070 333.4385 15.57709999454235

Track GAOFEN 11 in real time with AllMySat

Download on the App Store